Regional Weather Roundup
Issued by NWS Green Bay, WI

Home | Current Version | Previous Version | Graphics & Text | Print | Product List | Glossary Off
Versions: 1 2 3 4 5 6 7 8 9 10 11 12 13 14 15 16 17 18 19 20 21 22 23 24 25 26 27 28 29 30 31 32 33 34 35 36 37 38 39 40 41 42 43 44 45 46 47 48 49 50

000
ASUS43 KGRB 190259
RWRGRB

NORTH-CENTRAL AND NORTHEAST WISCONSIN REGIONAL WEATHER ROUNDUP
NATIONAL WEATHER SERVICE GREEN BAY WI
1000 PM CDT THU SEP 18 2014

WIZ005-009-010>012-018-019-190400-
NORTH CENTRAL WISCONSIN

CITY           SKY/WX    TMP DP  RH WIND       PRES   REMARKS
IRONWOOD       CLEAR     52  48  87 S9G20     30.04F
MANITOWISH WTR NOT AVBL
ARBOR VITAE    NOT AVBL
EAGLE RIVER    NOT AVBL
LAND O LAKES   NOT AVBL
RHINELANDER    CLEAR     47  45  93 S6        30.14S
PHILLIPS       CLEAR     49  47  93 SE6       30.10F
ANTIGO         NOT AVBL
TOMAHAWK       NOT AVBL
MERRILL        NOT AVBL
$$

WIZ013-073-190400-
NORTHEAST WISCONSIN

CITY           SKY/WX    TMP DP  RH WIND       PRES   REMARKS
IRON MOUNTAIN  CLEAR     46  43  89 SE3       30.15R
MARINETTE      CLEAR     48  43  81 CALM      30.16R
$$

WIZ017-030-035>037-045-190400-
CENTRAL WISCONSIN

CITY           SKY/WX    TMP DP  RH WIND       PRES   REMARKS
MEDFORD        NOT AVBL
WAUSAU         CLEAR     48  46  93 E5        30.14R
MOSINEE        CLEAR     46  46 100 E5        30.15R
MARSHFIELD     CLEAR     50  48  93 SE6       30.13S
WISC RAPIDS    CLEAR     50  48  93 E5        30.15S
STEVENS POINT  NOT AVBL
WAUPACA        NOT AVBL
SHAWANO        CLEAR     48  46  91 CALM      30.17R
CLINTONVILLE   CLEAR     46  45  93 CALM      30.16R
$$

WIZ038-039-048-051-190400-
FOX VALLEY

CITY           SKY/WX    TMP DP  RH WIND       PRES   REMARKS
NWS GREEN BAY  CLEAR     48  46  93 CALM      30.17S
APPLETON       PTCLDY    52  46  82 SE8       30.16S
OSHKOSH        CLEAR     51  49  92 SE5       30.16R
FOND DU LAC    CLEAR     50  47  89 SE5       30.17R
$$

WIZ022-050-052-190400-
EAST CENTRAL WISCONSIN

CITY           SKY/WX    TMP DP  RH WIND       PRES   REMARKS
STURGEON BAY   CLEAR     46  43  87 SE3       30.17S
MANITOWOC      NOT AVBL
SHEBOYGAN      CLEAR     43  42  97 CALM      30.17S
$$

LMZ563-521-522-541>543-190400-
LAKESHORE

STATION/POSITION TIME  TEMP    WIND        PRES    VSBY  WAVE
                       AIR SEA DIR/SP/G                  HT/PER
                 (UTC) (F)     (DEG/KT/KT) (MB)    (MI)  (FT/S)
SHEBOYGAN LKSHOR 0200   52 50   30/  4/  4 1022.2R
KEWAUNEE LKSHORE 0200          110/  5/  6 1020.6R
NORTHPORT PIER   0200   54     120/  8/  9 1021.3S
N MID LAKE BUOY  0200   53 58  120/  6/  8 1022.1S         0
CHAMBERS ISLAND  0200   50     130/  4/  6 1021.3F
MENOMINEE LKSHOR 0200          130/  9/ 11 1021.7F
$$


USA.gov is the U.S. government's official web portal to all federal, state and local government web resources and services.